HVN1660 VVTS-VVTH

Flight info

Callsign HVN1660
Flight time 0h 48m
Altitude 29000
Route PTH6D PTH W2 KARAN KARAN1H
Aircraft A21N/M-SDE2E3FGHIRWXY/LB1

Departure

Time 2026-05-04 08:43
Airport Tan Son Nhat International Airport (VVTS)

Arrival

Time 2026-05-04 09:31
Airport Dong Tac Airport (VVTH)
Time Latitude Longitude Altitude Speed Heading
2026-05-04 08:10 10.81519 106.65662 43 ft 0 kts 339°
2026-05-04 08:38 10.81563 106.65650 42 ft 11 kts 10°
2026-05-04 08:38 10.81611 106.65712 42 ft 12 kts 71°
2026-05-04 08:38 10.81649 106.65798 41 ft 14 kts 34°
2026-05-04 08:40 10.81997 106.66431 41 ft 18 kts 69°
2026-05-04 08:40 10.82043 106.66554 39 ft 19 kts 69°
2026-05-04 08:40 10.82091 106.66684 39 ft 20 kts 69°
2026-05-04 08:41 10.82142 106.66820 37 ft 21 kts 69°
2026-05-04 08:41 10.82195 106.66961 40 ft 22 kts 68°
2026-05-04 08:41 10.82279 106.67001 40 ft 17 kts 329°
2026-05-04 08:41 10.82346 106.66936 40 ft 11 kts 335°
2026-05-04 08:42 10.82351 106.66913 40 ft 0 kts 250°
2026-05-04 08:42 10.82343 106.66889 40 ft 21 kts 251°
2026-05-04 08:42 10.82208 106.66523 39 ft 92 kts 249°
2026-05-04 08:43 10.81898 106.65709 43 ft 152 kts 247°
2026-05-04 08:43 10.81478 106.64572 179 ft 179 kts 245°
2026-05-04 08:43 10.81029 106.63399 700 ft 182 kts 245°
2026-05-04 08:43 10.80550 106.62164 1130 ft 191 kts 247°
2026-05-04 08:44 10.80063 106.60886 1574 ft 200 kts 248°
2026-05-04 08:44 10.79545 106.59535 1985 ft 211 kts 248°
2026-05-04 08:46 10.74224 106.51016 5611 ft 228 kts 176°
2026-05-04 08:46 10.72296 106.51727 6314 ft 223 kts 138°
2026-05-04 08:46 10.71391 106.52976 6804 ft 221 kts 110°
2026-05-04 08:46 10.71177 106.54511 7315 ft 222 kts 85°
2026-05-04 08:47 10.71355 106.55562 7674 ft 223 kts 78°
2026-05-04 08:47 10.71680 106.57094 8198 ft 225 kts 78°
2026-05-04 08:47 10.71996 106.58666 8686 ft 230 kts 79°
2026-05-04 08:47 10.72317 106.60320 8940 ft 247 kts 79°
2026-05-04 08:48 10.72580 106.62108 9206 ft 263 kts 88°
2026-05-04 08:48 10.72533 106.64023 9529 ft 277 kts 92°
2026-05-04 08:48 10.72428 106.66015 9959 ft 285 kts 92°
2026-05-04 08:48 10.72320 106.68052 10252 ft 299 kts 92°
2026-05-04 08:49 10.72209 106.70232 10478 ft 316 kts 92°
2026-05-04 08:50 10.71524 106.85446 11737 ft 393 kts 90°
2026-05-04 08:50 10.71522 106.88237 12156 ft 396 kts 90°
2026-05-04 08:51 10.71523 106.91055 12562 ft 399 kts 90°
2026-05-04 08:51 10.71525 106.93893 12953 ft 402 kts 90°
2026-05-04 08:51 10.71526 106.96748 13317 ft 406 kts 90°
2026-05-04 08:51 10.71530 106.99637 13696 ft 409 kts 90°
2026-05-04 08:52 10.71532 107.02495 14053 ft 412 kts 90°
2026-05-04 08:52 10.71534 107.05423 14427 ft 414 kts 90°
2026-05-04 08:52 10.71536 107.08358 14810 ft 416 kts 90°
2026-05-04 08:52 10.71535 107.11311 15171 ft 418 kts 90°
2026-05-04 08:53 10.71530 107.14266 15566 ft 420 kts 91°
2026-05-04 08:54 10.72301 107.35309 18161 ft 436 kts 75°
2026-05-04 08:55 10.73159 107.38271 18477 ft 437 kts 75°
2026-05-04 08:55 10.74035 107.41242 18750 ft 439 kts 74°
2026-05-04 08:55 10.74903 107.44233 19014 ft 441 kts 75°
2026-05-04 08:55 10.75762 107.47233 19305 ft 443 kts 75°
2026-05-04 08:57 10.81861 107.68611 21115 ft 458 kts 75°
2026-05-04 09:01 10.97277 108.12077 24624 ft 481 kts 47°
2026-05-04 09:01 10.99606 108.14527 24870 ft 481 kts 46°
2026-05-04 09:01 11.01933 108.16981 25100 ft 481 kts 47°
2026-05-04 09:01 11.04247 108.19455 25366 ft 480 kts 47°
2026-05-04 09:02 11.06543 108.21914 25637 ft 479 kts 47°
2026-05-04 09:02 11.08844 108.24378 25885 ft 479 kts 47°
2026-05-04 09:02 11.11121 108.26813 26132 ft 479 kts 47°
2026-05-04 09:02 11.13423 108.29278 26391 ft 478 kts 47°
2026-05-04 09:03 11.15717 108.31739 26660 ft 478 kts 47°
2026-05-04 09:03 11.18009 108.34208 26902 ft 478 kts 47°
2026-05-04 09:03 11.20299 108.36670 27177 ft 477 kts 47°
2026-05-04 09:03 11.22553 108.39093 27407 ft 478 kts 47°
2026-05-04 09:04 11.24838 108.41545 27671 ft 477 kts 47°
2026-05-04 09:04 11.27130 108.44002 27897 ft 477 kts 47°
2026-05-04 09:04 11.29423 108.46468 28179 ft 476 kts 47°
2026-05-04 09:04 11.31705 108.48922 28402 ft 476 kts 47°
2026-05-04 09:05 11.33961 108.51346 28701 ft 475 kts 47°
2026-05-04 09:05 11.36237 108.53791 28888 ft 474 kts 47°
2026-05-04 09:05 11.38505 108.56230 28913 ft 473 kts 47°
2026-05-04 09:06 11.43031 108.61103 28895 ft 473 kts 47°
2026-05-04 09:08 11.58716 108.77991 28897 ft 473 kts 48°
2026-05-04 09:08 11.63250 108.82883 28898 ft 473 kts 47°
2026-05-04 09:09 11.67770 108.87762 28884 ft 473 kts 47°
2026-05-04 09:09 11.72275 108.92629 28903 ft 473 kts 48°
2026-05-04 09:10 11.76820 108.97530 28903 ft 474 kts 47°
2026-05-04 09:10 11.81345 109.02410 28894 ft 475 kts 47°
2026-05-04 09:11 11.85874 109.07305 28902 ft 475 kts 47°
2026-05-04 09:11 11.90399 109.12216 28895 ft 475 kts 48°
2026-05-04 09:12 11.94932 109.17046 28894 ft 473 kts 43°
2026-05-04 09:12 11.97569 109.19086 28873 ft 474 kts 32°
2026-05-04 09:14 12.20375 109.20329 26351 ft 481 kts 355°
2026-05-04 09:14 12.23697 109.20010 25435 ft 483 kts 353°
2026-05-04 09:14 12.27030 109.19603 24504 ft 483 kts 353°
2026-05-04 09:14 12.30364 109.19187 23636 ft 482 kts 353°
2026-05-04 09:15 12.33690 109.18775 22711 ft 479 kts 354°
2026-05-04 09:15 12.36959 109.18410 21914 ft 476 kts 355°
2026-05-04 09:15 12.40253 109.18091 21140 ft 473 kts 355°
2026-05-04 09:15 12.43530 109.17775 20335 ft 471 kts 355°
2026-05-04 09:17 12.68345 109.15374 14834 ft 423 kts 356°
2026-05-04 09:18 12.71274 109.15129 14237 ft 421 kts 356°
2026-05-04 09:18 12.74191 109.14881 13634 ft 418 kts 356°
2026-05-04 09:18 12.77064 109.14634 12933 ft 411 kts 356°
2026-05-04 09:18 12.79871 109.14393 12274 ft 405 kts 356°
2026-05-04 09:19 12.82657 109.14153 11767 ft 397 kts 356°
2026-05-04 09:19 12.85364 109.14145 11460 ft 380 kts
2026-05-04 09:19 12.87910 109.14643 11235 ft 364 kts 15°
2026-05-04 09:19 12.90329 109.15202 11048 ft 349 kts 15°
2026-05-04 09:20 12.92653 109.15738 10857 ft 335 kts 14°
2026-05-04 09:20 12.94879 109.16242 10695 ft 321 kts 14°
2026-05-04 09:20 12.96996 109.16717 10513 ft 308 kts 15°
2026-05-04 09:20 12.99073 109.17180 10310 ft 297 kts 15°
2026-05-04 09:21 13.01055 109.17636 9987 ft 294 kts 17°
2026-05-04 09:21 13.02926 109.18438 9812 ft 288 kts 30°
2026-05-04 09:21 13.04682 109.19463 9260 ft 289 kts 32°
2026-05-04 09:21 13.06411 109.20500 8864 ft 286 kts 32°
2026-05-04 09:22 13.08133 109.21526 8414 ft 285 kts 32°
2026-05-04 09:22 13.09822 109.22524 8008 ft 282 kts 32°
2026-05-04 09:22 13.11519 109.23524 7559 ft 280 kts 31°
2026-05-04 09:22 13.13206 109.24515 7050 ft 279 kts 31°
2026-05-04 09:23 13.14883 109.25497 6589 ft 274 kts 31°
2026-05-04 09:23 13.16528 109.26461 6069 ft 271 kts 31°
2026-05-04 09:23 13.18164 109.27420 5533 ft 269 kts 31°
2026-05-04 09:23 13.19771 109.28361 5143 ft 263 kts 31°
2026-05-04 09:25 13.26886 109.35295 4679 ft 214 kts 114°
2026-05-04 09:25 13.26112 109.36612 4306 ft 217 kts 121°
2026-05-04 09:26 13.25299 109.37906 3999 ft 214 kts 119°
2026-05-04 09:26 13.24518 109.39208 3697 ft 213 kts 118°
2026-05-04 09:26 13.23769 109.40495 3500 ft 202 kts 118°
2026-05-04 09:26 13.23088 109.41668 3394 ft 185 kts 119°
2026-05-04 09:27 13.22276 109.42614 3224 ft 173 kts 149°
2026-05-04 09:27 13.21109 109.42843 3156 ft 177 kts 186°
2026-05-04 09:27 13.19941 109.42396 3043 ft 181 kts 207°
2026-05-04 09:27 13.18894 109.41672 2842 ft 178 kts 207°
2026-05-04 09:28 13.17846 109.41045 2638 ft 175 kts 207°
2026-05-04 09:28 13.16765 109.40407 2393 ft 177 kts 207°
2026-05-04 09:28 13.15711 109.39788 2166 ft 176 kts 207°
2026-05-04 09:28 13.14651 109.39164 1928 ft 177 kts 208°
2026-05-04 09:29 13.13582 109.38535 1703 ft 178 kts 207°
2026-05-04 09:29 13.12524 109.37912 1482 ft 173 kts 206°
2026-05-04 09:29 13.11472 109.37294 1259 ft 176 kts 208°
2026-05-04 09:29 13.10444 109.36689 1081 ft 158 kts 208°
2026-05-04 09:30 13.09510 109.36139 879 ft 151 kts 206°
2026-05-04 09:30 13.08616 109.35613 657 ft 152 kts 207°
2026-05-04 09:30 13.07697 109.35073 466 ft 151 kts 209°
2026-05-04 09:30 13.06788 109.34539 253 ft 150 kts 208°
2026-05-04 09:31 13.06191 109.34188 130 ft 149 kts 208°
2026-05-04 09:31 13.05309 109.33677 27 ft 134 kts 208°
2026-05-04 09:31 13.04673 109.33304 24 ft 80 kts 210°
2026-05-04 09:31 13.04289 109.33077 25 ft 26 kts 211°
2026-05-04 09:32 13.04176 109.33027 25 ft 27 kts 187°
2026-05-04 09:32 13.03987 109.33030 25 ft 28 kts 179°
2026-05-04 09:34 13.04195 109.33599 24 ft 21 kts 30°
2026-05-04 09:34 13.04328 109.33677 24 ft 23 kts 30°
2026-05-04 09:34 13.04468 109.33759 24 ft 24 kts 30°
2026-05-04 09:34 13.04613 109.33847 24 ft 25 kts 31°
2026-05-04 09:35 13.04764 109.33934 24 ft 25 kts 28°
2026-05-04 09:35 13.04917 109.34023 24 ft 26 kts 30°
2026-05-04 09:35 13.05047 109.34108 24 ft 16 kts 76°
2026-05-04 09:35 13.05018 109.34209 24 ft 10 kts 110°
2026-05-04 09:37 13.05085 109.34341 24 ft 0 kts 118°